"Pseudo-MPEC" for P10Lbzz
Created 2019 Jan 12 21:18:22 UT using Find_Orb
Click here for an explanation of pseudo-MPECs
Astrometry: P10Lbzz C2019 01 08fG/^-gjh\7\f1\qd+Cb
AstrometryY-4vHIoaS[0hG1w`reP`!hw
F51 P10Lbzz C2019 01 08\YxDmtlqD-J%q8\6@TUqnV9EDl%]cx?CP=6K/-Ip1(AJ.#:)1oK9
F51 P10Lbzz C2019 01 08\Lk3i(^Sia#
redacted;UiE%QsZ4h4nmMsc2Xo[:uLMe.erRLu-o
F51 P10Lbzz C2019 01 08e'J3tQ,]dd-yY(K,G4L?fRoMHC9#@R8_YbrSnYk2wR1VZ6=\JiUj
F51 P10Lbzz |C2019 01 09Fh._(A!Tuog@'er8u,)lhS[DDWH;Tpr!9Z:uVoOQeqqF6C91OB$r
807 P10Lbzz |C2019 01 09iYi;Z\ONW+C`
click6bWacm*Y4x7,M*U/txh=9yB*0N'Kdj\-*0c
807 P10Lbzz |C2019 01 098`wG[uiRhk,1O_WA#!$)..nqKlXYwq]xsrsbKb.WM]Mf:oi;MM#[
807 P10Lbzz C2019 01 09a6_cN2LSN40!q8gfa1'4^+I3Y/f(?'ruf\IRb#'vg(mYpYt';.?1
W87 P10Lbzz C2019 01 09KuFW$y?[o.b6Xv
here0_7?X7P0JK=J'B*wQ3UP,6V!l(w:96Q2oB
W87 P10Lbzz C2019 01 09IM!KJR9%\Eo8Ga0eD-Y]xdom,1RSWI*$M.0fglf\^gwn,AVe$TOM
W87 P10Lbzz C2019 01 098jnBHuPX=J(S.IQWUL3@+AIXB8q#Yc$18L-i_I`/+nrTyO/Kb)V]
W87 P10Lbzz C2019 01 09WXR[ikbv4GyNV*B(^AWGGsPWV65Z;L8s$MI5
form76lfGQbOi^-7
W87 P10Lbzz C2019 01 12.46603 10 23 32.93 +02 48 17.9 ~1CCI 21.7 GVNEOCPI52 P10Lbzz C2019 01 12.46841 10 23 32.90 +02 48 20.2 ~1CCI 21.4 GVNEOCPI52 P10Lbzz C2019 01 12.47079 10 23 32.88 +02 48 22.3 ~1CCI 22.3 GVNEOCPI52 P10Lbzz C2019 01 12.47318 10 23 32.84 +02 48 26.6 ~1CCI 21.0 GVNEOCPI52 P10Lbzz KC2019 01 12cLlXR^+WfGZUnrla8mlTB[8)LCdH`UZ#'[4?@E+g%:\Q,wiSCDv$
291 P10Lbzz KC2019 01 12txgQZG2nfR9Ksrf/JL`m)kVb(5G3TjeAAEh-m/9`Z23v]M6P-@Bc
291 P10Lbzz KC2019 01 12]0QXQP^x/w^DcqD9.KP
explanation92J5u,9(iYmLCD*tO^2Mnc
291 Station data: (291) LPL/Spacewatch II (N31.961669 W111.599905) US/Arizona. Observers J. V. Scotti, R. S. McMillan. 1.8-m f/2.7 reflector + CCD. (807) Cerro Tololo Observatory, La Serena (S30.169136 W70.805900) Chile. 1.5-m Ritchey-Chrétien. (F51) Pan-STARRS 1, Haleakala (N20.707235 W156.255910) US/Hawaii. Observers N. Primak, A. Schultz, S. Watters, J. Thiel, T. Goggia. Measurer PS1 Science Consortium. 1.8-m Ritchey-Chrétien + CCD. (I52) Steward Observatory, Mt. Lemmon Station (N32.442547 W110.788920) US/Arizona. Observers B. M. Africano, E. J. Christensen, G. A. Farneth, D. C. Fuls, A. R. Gibbs, A. D. Grauer, H. Groeller, J. A. Johnson, R. A. Kowalski, S. M. Larson, G. J. Leonard, R. L. Seaman, F. C. Shelly. 1.0-m reflector + CCD. (W87) Cerro Tololo-LCO C (S30.167456 W70.804680) Chile. Orbital elements: P10Lbzz Perihelion 2018 Aug 18.958279 +/- 2.48 TT = 22:59:55 (JD 2458349.458279) Epoch 2019 Jan 12.0 TT = JDT 2458495.5 Earth MOID: 0.7822 AutoNEOCP M 33.57845155 +/- 1.4 (J2000 ecliptic) n 0.22992369 +/- 0.00671 Peri. 276.05963 +/- 0.47 a 2.63884309 +/- 0.0513 Node 143.38765 +/- 0.050 e 0.4183559 +/- 0.0138 Incl. 27.95589 +/- 0.39 P 4.29 H 18.6 G 0.15 U 9.4 q 1.53486736 +/- 0.0127 Q 3.74281882 +/- 0.106 From 19 observations 2019 Jan. 8-12; mean residual 0".26
Residuals in arcseconds: 190108 F51 .00 .03+ 190109 W87 .06- .00 190112 I52 .34+ .97- 190108 F51 .01+ .04- 190109 W87 .02+ .19+ 190112 I52 .42+ .72+ 190108 F51 .01- .03+ 190109 W87 .11+ .12- 190112 291 .07- .27+ 190108 F51 .04+ .04- 190109 W87 .05+ .07+ 190112 291 .08- .28+ 190109 807 .09+ .01+ 190109 W87 .01- .16+ 190112 291 .24- .19+ 190109 807 .00 .11- 190112 I52 .26- .16- 190109 807 .21- .09- 190112 I52 .03- .46- Ephemerides (geocentric): Date (UTC) HH RA Dec delta r elong mag " sig PA ---- -- -- -- ------------- ----------- ------ ------ ----- --- ---- --- 2019 01 12 21 10 23 26.227 +02 55 51.48 1.1496 1.9728 135.2 21.4 .156 108 2019 01 12 22 10 23 25.513 +02 56 37.52 1.1494 1.9730 135.2 21.4 .174 107 2019 01 12 23 10 23 24.795 +02 57 23.59 1.1493 1.9732 135.3 21.4 .192 106 2019 01 13 00 10 23 24.073 +02 58 09.71 1.1491 1.9734 135.3 21.4 .211 105 2019 01 13 01 10 23 23.348 +02 58 55.87 1.1489 1.9736 135.4 21.4 .230 105 2019 01 13 02 10 23 22.619 +02 59 42.07 1.1488 1.9738 135.4 21.4 .249 104 2019 01 13 03 10 23 21.887 +03 00 28.32 1.1486 1.9740 135.5 21.4 .269 103 2019 01 13 04 10 23 21.151 +03 01 14.60 1.1484 1.9742 135.5 21.4 .289 103 2019 01 13 05 10 23 20.411 +03 02 00.93 1.1482 1.9744 135.6 21.4 .309 103 2019 01 13 06 10 23 19.667 +03 02 47.29 1.1481 1.9746 135.6 21.4 .330 102 2019 01 13 07 10 23 18.920 +03 03 33.70 1.1479 1.9748 135.7 21.4 .351 102 2019 01 13 08 10 23 18.169 +03 04 20.15 1.1477 1.9750 135.7 21.4 .373 101 2019 01 13 09 10 23 17.415 +03 05 06.64 1.1476 1.9752 135.8 21.4 .394 101 2019 01 13 10 10 23 16.657 +03 05 53.17 1.1474 1.9754 135.8 21.4 .416 101 2019 01 13 11 10 23 15.895 +03 06 39.75 1.1472 1.9756 135.9 21.4 .439 101 2019 01 13 12 10 23 15.129 +03 07 26.36 1.1471 1.9758 135.9 21.4 .462 100 2019 01 13 13 10 23 14.360 +03 08 13.02 1.1469 1.9760 136.0 21.4 .485 100 2019 01 13 14 10 23 13.588 +03 08 59.71 1.1467 1.9762 136.0 21.4 .508 100 2019 01 13 15 10 23 12.811 +03 09 46.45 1.1466 1.9764 136.1 21.4 .532 100 2019 01 13 16 10 23 12.031 +03 10 33.23 1.1464 1.9766 136.1 21.4 .556 100 2019 01 13 17 10 23 11.247 +03 11 20.04 1.1462 1.9768 136.2 21.4 .580 100 2019 01 13 18 10 23 10.460 +03 12 06.90 1.1461 1.9770 136.2 21.4 .605 99 2019 01 13 19 10 23 09.669 +03 12 53.80 1.1459 1.9772 136.3 21.4 .630 99 2019 01 13 20 10 23 08.874 +03 13 40.74 1.1457 1.9774 136.3 21.4 .655 99 2019 01 13 21 10 23 08.076 +03 14 27.72 1.1456 1.9776 136.4 21.4 .681 99 2019 01 13 22 10 23 07.274 +03 15 14.75 1.1454 1.9778 136.4 21.4 .707 99 2019 01 13 23 10 23 06.469 +03 16 01.81 1.1452 1.9780 136.5 21.4 .734 99 2019 01 14 00 10 23 05.660 +03 16 48.91 1.1451 1.9782 136.5 21.4 .760 99 2019 01 14 01 10 23 04.847 +03 17 36.06 1.1449 1.9784 136.6 21.4 .787 98 2019 01 14 02 10 23 04.030 +03 18 23.24 1.1448 1.9786 136.6 21.4 .815 98 2019 01 14 03 10 23 03.210 +03 19 10.47 1.1446 1.9788 136.7 21.4 .842 98 2019 01 14 04 10 23 02.387 +03 19 57.73 1.1444 1.9790 136.7 21.4 .870 98 2019 01 14 05 10 23 01.559 +03 20 45.04 1.1443 1.9792 136.8 21.4 .898 98 2019 01 14 06 10 23 00.729 +03 21 32.38 1.1441 1.9793 136.8 21.4 .927 98 2019 01 14 07 10 22 59.894 +03 22 19.77 1.1439 1.9795 136.9 21.4 .956 98 2019 01 14 08 10 22 59.056 +03 23 07.20 1.1438 1.9797 136.9 21.4 .985 98 2019 01 14 09 10 22 58.214 +03 23 54.67 1.1436 1.9799 137.0 21.4 1.01 98 2019 01 14 10 10 22 57.369 +03 24 42.17 1.1435 1.9801 137.0 21.4 1.04 98 2019 01 14 11 10 22 56.520 +03 25 29.72 1.1433 1.9803 137.1 21.4 1.07 98 2019 01 14 12 10 22 55.667 +03 26 17.31 1.1431 1.9805 137.1 21.4 1.11 98 2019 01 14 13 10 22 54.811 +03 27 04.94 1.1430 1.9807 137.2 21.4 1.14 97 2019 01 14 14 10 22 53.951 +03 27 52.60 1.1428 1.9809 137.2 21.4 1.17 97 2019 01 14 15 10 22 53.088 +03 28 40.31 1.1427 1.9811 137.3 21.4 1.20 97 2019 01 14 16 10 22 52.221 +03 29 28.06 1.1425 1.9813 137.3 21.4 1.23 97 2019 01 14 17 10 22 51.350 +03 30 15.85 1.1424 1.9815 137.4 21.4 1.26 97 2019 01 14 18 10 22 50.476 +03 31 03.68 1.1422 1.9817 137.4 21.4 1.29 97 2019 01 14 19 10 22 49.599 +03 31 51.54 1.1420 1.9819 137.5 21.4 1.33 97 2019 01 14 20 10 22 48.717 +03 32 39.45 1.1419 1.9821 137.6 21.4 1.36 97